| time (UTC) | temp F | wind direction | speed knots | gust knots | rain 1hr in | rain 24hr in | rain mn in | humidity % | barometer mb |
| 20260505013402 | 47 | 268 | 5.2 | 11.3 | 0.00 | 0.00 | 0.00 | 66 | 1002.6 |
| 20260505012902 | 47 | 231 | 4.3 | 10.4 | 0.00 | 0.00 | 0.00 | 66 | 1002.5 |
| 20260505012402 | 47 | 295 | 4.3 | 11.3 | 0.00 | 0.00 | 0.00 | 65 | 1002.5 |
| 20260505011902 | 48 | 307 | 6.1 | 11.3 | 0.00 | 0.00 | 0.00 | 65 | 1002.6 |
| 20260505011402 | 48 | 295 | 3.5 | 11.3 | 0.00 | 0.00 | 0.00 | 64 | 1002.5 |
| 20260505010902 | 48 | 281 | 3.5 | 11.3 | 0.00 | 0.00 | 0.00 | 63 | 1002.5 |
| 20260505010401 | 48 | 279 | 6.1 | 11.3 | 0.00 | 0.00 | 0.00 | 63 | 1002.4 |
| 20260505005901 | 48 | 285 | 6.1 | 11.3 | 0.00 | 0.00 | 0.00 | 63 | 1002.5 |
| 20260505005402 | 47 | 295 | 3.5 | 11.3 | 0.00 | 0.00 | 0.00 | 63 | 1002.5 |
| 20260505004902 | 48 | 266 | 1.7 | 11.3 | 0.00 | 0.00 | 0.00 | 62 | 1002.4 |
| 20260505004621 | 48 | 269 | 4.3 | 9.6 | 0.00 | 0.00 | 0.00 | 62 | 1002.5 |
| 20260505003904 | 48 | 299 | 5.2 | 10.4 | 0.00 | 0.00 | 0.00 | 61 | 1002.5 |
| 20260505003403 | 48 | 257 | 4.3 | 10.4 | 0.00 | 0.00 | 0.00 | 61 | 1002.4 |
| 20260505002902 | 48 | 278 | 3.5 | 11.3 | 0.00 | 0.00 | 0.00 | 60 | 1002.5 |
| 20260505002402 | 48 | 252 | 7.0 | 11.3 | 0.00 | 0.00 | 0.00 | 60 | 1002.5 |
| 20260505001902 | 48 | 288 | 3.5 | 11.3 | 0.00 | 0.00 | 0.00 | 60 | 1002.5 |
| 20260505001402 | 48 | 272 | 4.3 | 7.8 | 0.00 | 0.00 | 0.00 | 60 | 1002.4 |
| 20260505000903 | 48 | 248 | 3.5 | 10.4 | 0.00 | 0.00 | 0.00 | 60 | 1002.4 |
| 20260505000623 | 48 | 269 | 2.6 | 10.4 | 0.00 | 0.00 | 0.00 | 59 | 1002.4 |
| 20260504235903 | 48 | 279 | 2.6 | 8.7 | 0.00 | 0.00 | 0.00 | 60 | 1002.5 |
| 20260504235403 | 48 | 288 | 5.2 | 10.4 | 0.00 | 0.00 | 0.00 | 59 | 1002.5 |
| 20260504234903 | 48 | 252 | 6.1 | 10.4 | 0.00 | 0.00 | 0.00 | 60 | 1002.5 |
| 20260504234402 | 48 | 257 | 3.5 | 10.4 | 0.00 | 0.00 | 0.00 | 59 | 1002.6 |
| 20260504234136 | 48 | 268 | 3.5 | 8.7 | 0.00 | 0.00 | 0.00 | 59 | 1002.6 |
| 20260504233404 | 48 | 271 | 3.5 | 8.7 | 0.00 | 0.00 | 0.00 | 60 | 1002.6 |
| 20260504232903 | 48 | 278 | 3.5 | 7.8 | 0.00 | 0.00 | 0.00 | 59 | 1002.5 |
| 20260504232403 | 48 | 290 | 3.5 | 8.7 | 0.00 | 0.00 | 0.00 | 59 | 1002.6 |
| 20260504231903 | 48 | 257 | 4.3 | 8.7 | 0.00 | 0.00 | 0.00 | 60 | 1002.7 |
| 20260504231840 | 48 | 240 | 3.5 | 6.1 | 0.00 | 0.00 | 0.00 | 61 | 1002.7 |
| 20260504230902 | 48 | 238 | 2.6 | 6.1 | 0.00 | 0.00 | 0.00 | 62 | 1002.7 |
| 20260504230403 | 48 | 252 | 3.5 | 5.2 | 0.00 | 0.00 | 0.00 | 62 | 1002.7 |
| 20260504225904 | 48 | 254 | 2.6 | 5.2 | 0.00 | 0.00 | 0.00 | 63 | 1002.7 |
| 20260504225404 | 48 | 251 | 3.5 | 5.2 | 0.00 | 0.00 | 0.00 | 63 | 1002.7 |
| 20260504224903 | 48 | 276 | 2.6 | 5.2 | 0.00 | 0.00 | 0.00 | 62 | 1002.8 |
| 20260504224843 | 48 | 241 | 1.7 | 3.5 | 0.00 | 0.00 | 0.00 | 62 | 1002.8 |
| 20260504223903 | 49 | 255 | 2.6 | 3.5 | 0.00 | 0.00 | 0.00 | 60 | 1002.9 |
| 20260504223403 | 49 | 254 | 1.7 | 3.5 | 0.00 | 0.00 | 0.00 | 59 | 1003.0 |
| 20260504222902 | 49 | 243 | 2.6 | 4.3 | 0.00 | 0.00 | 0.00 | 59 | 1003.0 |
| 20260504222403 | 49 | 251 | 2.6 | 5.2 | 0.00 | 0.00 | 0.00 | 59 | 1003.1 |
| 20260504222122 | 49 | 285 | 1.7 | 5.2 | 0.00 | 0.00 | 0.00 | 58 | 1003.0 |
| 20260504221403 | 50 | 262 | 3.5 | 5.2 | 0.00 | 0.00 | 0.00 | 58 | 1003.1 |
| 20260504220903 | 50 | 269 | 3.5 | 8.7 | 0.00 | 0.00 | 0.00 | 58 | 1003.1 |
| 20260504220403 | 50 | 241 | 3.5 | 8.7 | 0.00 | 0.00 | 0.00 | 59 | 1003.1 |
| 20260504220122 | 50 | 265 | 3.5 | 5.2 | 0.00 | 0.00 | 0.00 | 58 | 1003.2 |
| 20260504215402 | 49 | 266 | 3.5 | 6.1 | 0.00 | 0.00 | 0.00 | 60 | 1003.2 |
| 20260504215131 | 49 | 257 | 4.3 | 6.1 | 0.00 | 0.00 | 0.00 | 60 | 1003.2 |
| 20260504214402 | 49 | 259 | 2.6 | 4.3 | 0.00 | 0.00 | 0.00 | 60 | 1003.2 |
| 20260504213902 | 50 | 266 | 3.5 | 4.3 | 0.00 | 0.00 | 0.00 | 60 | 1003.2 |
| 20260504213402 | 50 | 261 | 2.6 | 4.3 | 0.00 | 0.00 | 0.00 | 60 | 1003.2 |
| 20260504212903 | 50 | 252 | 1.7 | 6.1 | 0.00 | 0.00 | 0.00 | 60 | 1003.3 |
| 20260504212402 | 50 | 248 | 2.6 | 6.1 | 0.00 | 0.00 | 0.00 | 60 | 1003.2 |
| 20260504211902 | 50 | 306 | 2.6 | 5.2 | 0.00 | 0.00 | 0.00 | 60 | 1003.3 |
| 20260504211403 | 51 | 265 | 1.7 | 5.2 | 0.00 | 0.00 | 0.00 | 60 | 1003.3 |
| 20260504210903 | 51 | 279 | 1.7 | 4.3 | 0.00 | 0.00 | 0.00 | 59 | 1003.4 |
| 20260504210402 | 51 | 266 | 2.6 | 3.5 | 0.00 | 0.00 | 0.00 | 60 | 1003.3 |
| 20260504210128 | 51 | 285 | 1.7 | 4.3 | 0.00 | 0.00 | 0.00 | 60 | 1003.3 |
| 20260504205402 | 51 | 281 | 2.6 | 9.6 | 0.00 | 0.00 | 0.00 | 60 | 1003.4 |
| 20260504204902 | 51 | 259 | 4.3 | 9.6 | 0.00 | 0.00 | 0.00 | 61 | 1003.3 |
| 20260504204402 | 51 | 283 | 2.6 | 6.1 | 0.00 | 0.00 | 0.00 | 62 | 1003.3 |
| 20260504204344 | 51 | 283 | 2.6 | 6.1 | 0.00 | 0.00 | 0.00 | 63 | 1003.3 |
| 20260504203844 | 51 | 230 | 2.6 | 6.1 | 0.00 | 0.00 | 0.00 | 64 | 1003.3 |
| 20260504202902 | 51 | 269 | 1.7 | 4.3 | 0.00 | 0.00 | 0.00 | 64 | 1003.3 |
| 20260504202402 | 51 | 266 | 2.6 | 4.3 | 0.00 | 0.00 | 0.00 | 64 | 1003.3 |
| 20260504201904 | 51 | 261 | 1.7 | 4.3 | 0.00 | 0.00 | 0.00 | 64 | 1003.3 |
| 20260504201404 | 51 | 309 | 2.6 | 4.3 | 0.00 | 0.00 | 0.00 | 64 | 1003.2 |
| 20260504200903 | 51 | 248 | 2.6 | 4.3 | 0.00 | 0.00 | 0.00 | 65 | 1003.3 |
| 20260504200852 | 51 | 303 | 1.7 | 4.3 | 0.00 | 0.00 | 0.00 | 65 | 1003.2 |
| 20260504195902 | 51 | 257 | 2.6 | 4.3 | 0.00 | 0.00 | 0.00 | 64 | 1003.3 |
| 20260504195403 | 52 | 265 | 1.7 | 3.5 | 0.00 | 0.00 | 0.00 | 64 | 1003.2 |
| 20260504194903 | 52 | 259 | 1.7 | 3.5 | 0.00 | 0.00 | 0.00 | 64 | 1003.2 |
| 20260504194405 | 52 | 248 | 1.7 | 3.5 | 0.00 | 0.00 | 0.00 | 65 | 1003.2 |
| 20260504193905 | 52 | 275 | 1.7 | 3.5 | 0.00 | 0.00 | 0.00 | 64 | 1003.1 |
| 20260504193403 | 52 | 265 | 1.7 | 3.5 | 0.00 | 0.00 | 0.00 | 64 | 1003.1 |
| 20260504192904 | 52 | 254 | 0.9 | 5.2 | 0.00 | 0.00 | 0.00 | 64 | 1003.2 |
| 20260504192404 | 53 | 261 | 1.7 | 5.2 | 0.00 | 0.00 | 0.00 | 64 | 1003.1 |
| 20260504191903 | 53 | 268 | 1.7 | 3.5 | 0.00 | 0.00 | 0.00 | 64 | 1003.1 |
| 20260504191405 | 53 | 272 | 1.7 | 2.6 | 0.00 | 0.00 | 0.00 | 64 | 1003.0 |
| 20260504190904 | 53 | 305 | 1.7 | 5.2 | 0.00 | 0.00 | 0.00 | 63 | 1003.0 |
| 20260504190405 | 54 | 281 | 3.5 | 5.2 | 0.00 | 0.00 | 0.00 | 63 | 1003.1 |
| 20260504185904 | 54 | 274 | 2.6 | 4.3 | 0.00 | 0.00 | 0.00 | 63 | 1003.1 |
| 20260504185403 | 54 | 269 | 1.7 | 5.2 | 0.00 | 0.00 | 0.00 | 63 | 1003.1 |
| 20260504185133 | 54 | 266 | 3.5 | 5.2 | 0.00 | 0.00 | 0.00 | 63 | 1003.1 |
| 20260504184404 | 54 | 276 | 1.7 | 5.2 | 0.00 | 0.00 | 0.00 | 64 | 1003.0 |
| 20260504183904 | 54 | 286 | 1.7 | 5.2 | 0.00 | 0.00 | 0.00 | 63 | 1003.1 |
| 20260504183403 | 55 | 298 | 1.7 | 6.1 | 0.00 | 0.00 | 0.00 | 63 | 1003.1 |
| 20260504183129 | 55 | 275 | 4.3 | 6.1 | 0.00 | 0.00 | 0.00 | 63 | 1003.1 |
| 20260504182403 | 55 | 276 | 2.6 | 6.1 | 0.00 | 0.00 | 0.00 | 62 | 1003.0 |
| 20260504181903 | 55 | 285 | 2.6 | 6.1 | 0.00 | 0.00 | 0.00 | 62 | 1003.1 |
| 20260504181403 | 55 | 296 | 3.5 | 4.3 | 0.00 | 0.00 | 0.00 | 62 | 1003.0 |
| 20260504180903 | 55 | 274 | 2.6 | 8.7 | 0.00 | 0.00 | 0.00 | 62 | 1003.0 |
| 20260504180403 | 56 | 296 | 4.3 | 8.7 | 0.00 | 0.00 | 0.00 | 61 | 1003.0 |
| 20260504180123 | 56 | 303 | 3.5 | 7.8 | 0.00 | 0.00 | 0.00 | 62 | 1002.9 |
| 20260504175403 | 55 | 319 | 5.2 | 8.7 | 0.00 | 0.00 | 0.00 | 62 | 1002.9 |
| 20260504174903 | 55 | 300 | 3.5 | 8.7 | 0.00 | 0.00 | 0.00 | 61 | 1002.9 |
| 20260504174403 | 56 | 296 | 3.5 | 9.6 | 0.00 | 0.00 | 0.00 | 61 | 1002.9 |
| 20260504173904 | 56 | 285 | 4.3 | 11.3 | 0.00 | 0.00 | 0.00 | 60 | 1002.8 |
| 20260504173403 | 56 | 288 | 5.2 | 11.3 | 0.00 | 0.00 | 0.00 | 59 | 1002.8 |
| 20260504172903 | 56 | 275 | 4.3 | 8.7 | 0.00 | 0.00 | 0.00 | 59 | 1002.8 |
| 20260504172403 | 57 | 303 | 6.1 | 11.3 | 0.00 | 0.00 | 0.00 | 58 | 1002.8 |
| 20260504171903 | 57 | 310 | 5.2 | 13.9 | 0.00 | 0.00 | 0.00 | 57 | 1002.8 |
| 20260504171403 | 57 | 289 | 9.6 | 13.9 | 0.00 | 0.00 | 0.00 | 58 | 1002.7 |
| 20260504170904 | 57 | 298 | 6.1 | 13.0 | 0.00 | 0.00 | 0.00 | 57 | 1002.7 |
| 20260504170403 | 57 | 258 | 6.1 | 13.9 | 0.00 | 0.00 | 0.00 | 56 | 1002.7 |
| 20260504160404 | 59 | 238 | 4.3 | 10.4 | 0.00 | 0.00 | 0.00 | 65 | 1002.0 |
| 20260504150903 | 58 | 195 | 3.5 | 8.7 | 0.00 | 0.00 | 0.00 | 74 | 1001.6 |
| 20260504150403 | 58 | 248 | 4.3 | 9.6 | 0.00 | 0.00 | 0.00 | 74 | 1001.6 |
| 20260504140903 | 57 | 202 | 5.2 | 8.7 | 0.00 | 0.00 | 0.00 | 75 | 1001.9 |
| 20260504140621 | 57 | 265 | 4.3 | 8.7 | 0.00 | 0.00 | 0.00 | 76 | 1001.9 |
| 20260504130403 | 56 | 183 | 6.1 | 8.7 | 0.00 | 0.00 | 0.00 | 79 | 1002.3 |
| 20260504110403 | 52 | 269 | 3.5 | 7.8 | 0.00 | 0.00 | 0.00 | 85 | 1003.1 |
| 20260504110128 | 52 | 266 | 5.2 | 7.8 | 0.00 | 0.00 | 0.00 | 86 | 1003.1 |
| 20260504100403 | 50 | 265 | 1.7 | 4.3 | 0.00 | 0.00 | 0.00 | 90 | 1003.2 |
| 20260504081403 | 45 | 180 | 1.7 | 2.6 | 0.00 | 0.00 | 0.00 | 93 | 1003.4 |
| 20260504080903 | 44 | 164 | 1.7 | 3.5 | 0.00 | 0.00 | 0.00 | 93 | 1003.4 |
| 20260504080403 | 44 | 179 | 1.7 | 3.5 | 0.00 | 0.00 | 0.00 | 93 | 1003.4 |
| 20260504050404 | 40 | 182 | 1.7 | 2.6 | 0.00 | 0.00 | 0.00 | 89 | 1004.9 |
| 20260504050124 | 40 | 188 | 0.9 | 3.5 | 0.00 | 0.00 | 0.00 | 89 | 1005.0 |
| 20260504045403 | 40 | 199 | 0.9 | 3.5 | 0.00 | 0.00 | 0.00 | 89 | 1005.0 |
| 20260504044903 | 40 | 203 | 1.7 | 3.5 | 0.00 | 0.00 | 0.00 | 88 | 1005.1 |
| 20260504044404 | 40 | 185 | 1.7 | 3.5 | 0.00 | 0.00 | 0.00 | 88 | 1005.1 |
| 20260504043904 | 40 | 164 | 1.7 | 3.5 | 0.00 | 0.00 | 0.00 | 87 | 1005.1 |
| 20260504043404 | 41 | 164 | 1.7 | 1.7 | 0.00 | 0.00 | 0.00 | 87 | 1005.2 |
| 20260504043128 | 41 | 164 | 0.0 | 0.0 | 0.00 | 0.00 | 0.00 | 86 | 1005.3 |
| 20260504042404 | 41 | 164 | 0.0 | 0.0 | 0.00 | 0.00 | 0.00 | 85 | 1005.3 |
| 20260504041903 | 41 | 164 | 0.0 | 0.0 | 0.00 | 0.00 | 0.00 | 84 | 1005.3 |
| 20260504041403 | 41 | 164 | 0.0 | 0.0 | 0.00 | 0.00 | 0.00 | 83 | 1005.2 |
| 20260504040903 | 41 | 164 | 0.0 | 0.0 | 0.00 | 0.00 | 0.00 | 83 | 1005.1 |
| 20260504040403 | 42 | 164 | 0.0 | 0.0 | 0.00 | 0.00 | 0.00 | 81 | 1005.2 |
| 20260504035903 | 42 | 164 | 0.0 | 0.9 | 0.00 | 0.00 | 0.00 | 81 | 1005.2 |
| 20260504035404 | 42 | 164 | 0.0 | 2.6 | 0.00 | 0.00 | 0.00 | 81 | 1005.0 |
| 20260504034903 | 42 | 164 | 0.9 | 2.6 | 0.00 | 0.00 | 0.00 | 80 | 1005.1 |
| 20260504034403 | 42 | 164 | 0.9 | 1.7 | 0.00 | 0.00 | 0.00 | 80 | 1005.2 |
| 20260504034123 | 42 | 164 | 0.0 | 1.7 | 0.00 | 0.00 | 0.00 | 80 | 1005.3 |
| 20260504033403 | 42 | 164 | 1.7 | 1.7 | 0.00 | 0.00 | 0.00 | 80 | 1005.3 |
| 20260504032903 | 42 | 164 | 0.0 | 0.0 | 0.00 | 0.00 | 0.00 | 80 | 1005.4 |
| 20260504032621 | 42 | 164 | 0.0 | 0.0 | 0.00 | 0.00 | 0.00 | 79 | 1005.5 |
| 20260504031903 | 42 | 164 | 0.0 | 0.0 | 0.00 | 0.00 | 0.00 | 79 | 1005.5 |
| 20260504031403 | 42 | 164 | 0.0 | 0.0 | 0.00 | 0.00 | 0.00 | 78 | 1005.6 |
| 20260504030903 | 42 | 164 | 0.0 | 1.7 | 0.00 | 0.00 | 0.00 | 77 | 1005.7 |
| 20260504030403 | 42 | 164 | 0.0 | 1.7 | 0.00 | 0.00 | 0.00 | 77 | 1005.7 |
| 20260504025903 | 42 | 164 | 0.9 | 0.9 | 0.00 | 0.00 | 0.00 | 77 | 1005.8 |
| 20260504025403 | 42 | 164 | 0.0 | 0.9 | 0.00 | 0.00 | 0.00 | 77 | 1006.0 |
| 20260504024902 | 42 | 164 | 0.0 | 1.7 | 0.00 | 0.00 | 0.00 | 76 | 1006.1 |
| 20260504024623 | 42 | 164 | 0.0 | 1.7 | 0.00 | 0.00 | 0.00 | 76 | 1006.2 |
| 20260504023904 | 42 | 164 | 0.0 | 0.9 | 0.00 | 0.00 | 0.00 | 76 | 1006.4 |
| 20260504023404 | 42 | 164 | 0.0 | 0.9 | 0.00 | 0.00 | 0.00 | 76 | 1006.4 |
| 20260504022903 | 42 | 164 | 0.0 | 1.7 | 0.00 | 0.00 | 0.00 | 76 | 1006.5 |
| 20260504022403 | 42 | 164 | 1.7 | 1.7 | 0.00 | 0.00 | 0.00 | 76 | 1006.4 |
| 20260504022126 | 42 | 164 | 0.0 | 0.0 | 0.00 | 0.00 | 0.00 | 77 | 1006.3 |
| 20260504021404 | 42 | 164 | 0.0 | 0.0 | 0.00 | 0.00 | 0.00 | 76 | 1006.2 |
| 20260504020903 | 42 | 164 | 0.0 | 0.0 | 0.00 | 0.00 | 0.00 | 77 | 1006.3 |
| 20260504020403 | 42 | 164 | 0.0 | 0.9 | 0.00 | 0.00 | 0.00 | 76 | 1006.3 |
| 20260504015903 | 42 | 164 | 0.0 | 1.7 | 0.00 | 0.00 | 0.00 | 76 | 1006.4 |
| 20260504015403 | 42 | 164 | 0.0 | 1.7 | 0.00 | 0.00 | 0.00 | 76 | 1006.5 |
| 20260504014903 | 42 | 164 | 0.9 | 2.6 | 0.00 | 0.00 | 0.00 | 76 | 1006.5 |
| 20260504014404 | 42 | 164 | 0.9 | 2.6 | 0.00 | 0.00 | 0.00 | 76 | 1006.5 |
| 20260504013903 | 42 | 164 | 0.9 | 2.6 | 0.00 | 0.00 | 0.00 | 76 | 1006.6 |